DAL2551 KPDX-KLAX

Flight info

Callsign DAL2551
Flight time 2h 2m
Altitude 37000
Route HRMNS6 HYJOE JAGWA BURGL IRNMN2
Aircraft A319/M-SDE3FGHIRWY/LB1

Departure

Time 2026-05-06 23:35
Airport Portland International Airport (KPDX)

Arrival

Time 2026-05-07 01:37
Airport Los Angeles International Airport (KLAX)
Time Latitude Longitude Altitude Speed Heading
2026-05-06 21:53 45.59140 -122.59474 45 ft 0 kts 228°
2026-05-06 23:24 45.59141 -122.59472 44 ft 2 kts 228°
2026-05-06 23:24 45.59158 -122.59448 44 ft 4 kts 215°
2026-05-06 23:25 45.59180 -122.59431 44 ft 4 kts 197°
2026-05-06 23:25 45.59204 -122.59426 44 ft 4 kts 170°
2026-05-06 23:25 45.59224 -122.59440 44 ft 2 kts 121°
2026-05-06 23:25 45.59227 -122.59448 44 ft 0 kts 119°
2026-05-06 23:28 45.59216 -122.59416 44 ft 10 kts 110°
2026-05-06 23:28 45.59215 -122.59290 44 ft 14 kts 95°
2026-05-06 23:29 45.59194 -122.59148 44 ft 15 kts 118°
2026-05-06 23:29 45.59140 -122.59009 44 ft 17 kts 118°
2026-05-06 23:29 45.59083 -122.58857 44 ft 18 kts 118°
2026-05-06 23:29 45.59030 -122.58723 44 ft 15 kts 120°
2026-05-06 23:30 45.58974 -122.58586 44 ft 17 kts 120°
2026-05-06 23:30 45.58916 -122.58436 44 ft 18 kts 118°
2026-05-06 23:30 45.58863 -122.58299 44 ft 16 kts 119°
2026-05-06 23:30 45.58807 -122.58157 44 ft 17 kts 119°
2026-05-06 23:31 45.58751 -122.58011 44 ft 15 kts 118°
2026-05-06 23:31 45.58701 -122.57886 44 ft 15 kts 119°
2026-05-06 23:31 45.58655 -122.57760 44 ft 13 kts 117°
2026-05-06 23:31 45.58609 -122.57642 44 ft 14 kts 120°
2026-05-06 23:32 45.58559 -122.57517 44 ft 14 kts 118°
2026-05-06 23:32 45.58509 -122.57386 44 ft 16 kts 118°
2026-05-06 23:32 45.58455 -122.57243 44 ft 16 kts 120°
2026-05-06 23:32 45.58401 -122.57110 44 ft 15 kts 120°
2026-05-06 23:33 45.58349 -122.56980 44 ft 15 kts 120°
2026-05-06 23:33 45.58301 -122.56858 44 ft 13 kts 118°
2026-05-06 23:33 45.58274 -122.56744 44 ft 12 kts 73°
2026-05-06 23:33 45.58344 -122.56697 44 ft 12 kts 344°
2026-05-06 23:34 45.58396 -122.56790 44 ft 13 kts 297°
2026-05-06 23:34 45.58463 -122.56963 45 ft 42 kts 299°
2026-05-06 23:34 45.58759 -122.57721 45 ft 130 kts 300°
2026-05-06 23:34 45.59273 -122.59059 433 ft 161 kts 300°
2026-05-06 23:35 45.59823 -122.60502 1256 ft 171 kts 299°
2026-05-06 23:35 45.60438 -122.61994 1967 ft 179 kts 302°
2026-05-06 23:35 45.61076 -122.63615 2473 ft 194 kts 294°
2026-05-06 23:35 45.61492 -122.65537 2962 ft 213 kts 283°
2026-05-06 23:36 45.61907 -122.67649 3586 ft 229 kts 292°
2026-05-06 23:36 45.62665 -122.69736 4268 ft 244 kts 301°
2026-05-06 23:36 45.63602 -122.71854 4973 ft 260 kts 302°
2026-05-06 23:36 45.64564 -122.74095 5816 ft 268 kts 301°
2026-05-06 23:37 45.65495 -122.76420 6751 ft 273 kts 299°
2026-05-06 23:37 45.66430 -122.78806 7663 ft 278 kts 298°
2026-05-06 23:37 45.67119 -122.81410 8543 ft 283 kts 279°
2026-05-06 23:37 45.67000 -122.84225 9434 ft 286 kts 255°
2026-05-06 23:38 45.66400 -122.86910 10395 ft 287 kts 249°
2026-05-06 23:38 45.65556 -122.89480 11336 ft 285 kts 233°
2026-05-06 23:38 45.64167 -122.91461 12250 ft 281 kts 210°
2026-05-06 23:38 45.62349 -122.92429 13110 ft 283 kts 188°
2026-05-06 23:39 45.60356 -122.92260 13697 ft 297 kts 168°
2026-05-06 23:39 45.58324 -122.91370 14168 ft 313 kts 163°
2026-05-06 23:39 45.56214 -122.90327 14635 ft 327 kts 163°
2026-05-06 23:39 45.54064 -122.89185 15322 ft 334 kts 158°
2026-05-06 23:40 45.52001 -122.87587 16047 ft 340 kts 153°
2026-05-06 23:40 45.49960 -122.85837 16745 ft 345 kts 152°
2026-05-06 23:40 45.47909 -122.84018 17424 ft 349 kts 152°
2026-05-06 23:40 45.45836 -122.82192 18101 ft 352 kts 152°
2026-05-06 23:41 45.43728 -122.80371 18753 ft 356 kts 152°
2026-05-06 23:41 45.41591 -122.78552 19395 ft 359 kts 153°
2026-05-06 23:41 45.39431 -122.76720 20013 ft 363 kts 153°
2026-05-06 23:41 45.37252 -122.74869 20616 ft 366 kts 153°
2026-05-06 23:42 45.35055 -122.72995 21212 ft 370 kts 153°
2026-05-06 23:42 45.32870 -122.71128 21775 ft 373 kts 153°
2026-05-06 23:42 45.30636 -122.69220 22334 ft 376 kts 153°
2026-05-06 23:42 45.28384 -122.67302 22870 ft 379 kts 153°
2026-05-06 23:43 45.26105 -122.65370 23396 ft 383 kts 153°
2026-05-06 23:43 45.23816 -122.63428 23911 ft 385 kts 153°
2026-05-06 23:43 45.21503 -122.61464 24407 ft 388 kts 153°
2026-05-06 23:43 45.19177 -122.59490 24893 ft 391 kts 153°
2026-05-06 23:44 45.16832 -122.57503 25372 ft 394 kts 153°
2026-05-06 23:44 45.14470 -122.55504 25850 ft 396 kts 153°
2026-05-06 23:44 45.12094 -122.53497 26312 ft 399 kts 153°
2026-05-06 23:44 45.09704 -122.51482 26774 ft 401 kts 153°
2026-05-06 23:45 45.07296 -122.49452 27231 ft 403 kts 153°
2026-05-06 23:45 45.04876 -122.47411 27681 ft 406 kts 153°
2026-05-06 23:45 45.02438 -122.45356 28119 ft 408 kts 153°
2026-05-06 23:45 44.99992 -122.43299 28554 ft 411 kts 153°
2026-05-06 23:46 44.97530 -122.41232 28975 ft 413 kts 153°
2026-05-06 23:46 44.95018 -122.39244 29372 ft 414 kts 158°
2026-05-06 23:46 44.92384 -122.37754 29779 ft 413 kts 164°
2026-05-06 23:46 44.89657 -122.36467 30197 ft 414 kts 166°
2026-05-06 23:47 44.86897 -122.35252 30593 ft 417 kts 166°
2026-05-06 23:47 44.84123 -122.34031 30985 ft 419 kts 166°
2026-05-06 23:47 44.81345 -122.32764 31505 ft 418 kts 165°
2026-05-06 23:47 44.78585 -122.31464 31997 ft 418 kts 165°
2026-05-06 23:48 44.75836 -122.30155 32491 ft 418 kts 165°
2026-05-06 23:48 44.73071 -122.28852 32969 ft 417 kts 166°
2026-05-06 23:48 44.70322 -122.27576 33443 ft 416 kts 166°
2026-05-06 23:48 44.67566 -122.26308 33893 ft 416 kts 166°
2026-05-06 23:49 44.64819 -122.25044 34339 ft 415 kts 166°
2026-05-06 23:49 44.62062 -122.23773 34735 ft 416 kts 166°
2026-05-06 23:49 44.59308 -122.22498 35135 ft 416 kts 166°
2026-05-06 23:49 44.56600 -122.21246 35527 ft 416 kts 166°
2026-05-06 23:50 44.53855 -122.19979 35895 ft 416 kts 166°
2026-05-06 23:50 44.48352 -122.17446 36611 ft 416 kts 167°
2026-05-06 23:50 44.45596 -122.16179 36956 ft 416 kts 167°
2026-05-06 23:51 44.42850 -122.14914 37122 ft 414 kts 167°
2026-05-06 23:51 44.40122 -122.13659 37106 ft 412 kts 167°
2026-05-06 23:51 44.34659 -122.11156 37108 ft 413 kts 167°
2026-05-06 23:52 44.29192 -122.08658 37109 ft 413 kts 167°
2026-05-06 23:52 44.23749 -122.06172 37109 ft 414 kts 167°
2026-05-06 23:53 44.18248 -122.03666 37101 ft 413 kts 167°
2026-05-06 23:53 44.12808 -122.01191 37096 ft 413 kts 167°
2026-05-06 23:54 44.07341 -121.98708 37113 ft 413 kts 167°
2026-05-06 23:54 44.01877 -121.96238 37134 ft 412 kts 167°
2026-05-06 23:55 43.96425 -121.93772 37134 ft 412 kts 167°
2026-05-06 23:55 43.90968 -121.91302 37136 ft 412 kts 167°
2026-05-06 23:56 43.85512 -121.88929 37131 ft 410 kts 172°
2026-05-06 23:56 43.79921 -121.87555 37129 ft 406 kts 176°
2026-05-06 23:57 43.74319 -121.86457 37097 ft 407 kts 176°
2026-05-06 23:57 43.68708 -121.85291 37079 ft 408 kts 176°
2026-05-06 23:58 43.63102 -121.84078 37080 ft 408 kts 176°
2026-05-06 23:58 43.57488 -121.82906 37065 ft 408 kts 176°
2026-05-06 23:59 43.51867 -121.81735 37082 ft 408 kts 176°
2026-05-06 23:59 43.46276 -121.80558 37066 ft 409 kts 176°
2026-05-07 00:00 43.40652 -121.79383 37091 ft 409 kts 176°
2026-05-07 00:00 43.35934 -121.78402 37099 ft 409 kts 176°
2026-05-07 00:01 43.29391 -121.77038 37138 ft 408 kts 176°
2026-05-07 00:01 43.23765 -121.75870 37105 ft 409 kts 176°
2026-05-07 00:02 43.18163 -121.74709 37065 ft 410 kts 176°
2026-05-07 00:02 43.12527 -121.73544 37041 ft 410 kts 176°
2026-05-07 00:03 43.06889 -121.72378 37033 ft 410 kts 176°
2026-05-07 00:03 43.01243 -121.71215 37042 ft 410 kts 176°
2026-05-07 00:04 42.96547 -121.70246 37044 ft 411 kts 176°
2026-05-07 00:04 42.89928 -121.68892 37079 ft 411 kts 177°
2026-05-07 00:05 42.85222 -121.67923 37115 ft 411 kts 177°
2026-05-07 00:05 42.79563 -121.66769 37114 ft 411 kts 177°
2026-05-07 00:06 42.73902 -121.65616 37117 ft 411 kts 177°
2026-05-07 00:06 42.68248 -121.64466 37107 ft 411 kts 177°
2026-05-07 00:07 42.62590 -121.63310 37099 ft 411 kts 177°
2026-05-07 00:07 42.56934 -121.62166 37102 ft 411 kts 177°
2026-05-07 00:08 42.51316 -121.61031 37089 ft 411 kts 177°
2026-05-07 00:08 42.45666 -121.59884 37094 ft 410 kts 177°
2026-05-07 00:09 42.40017 -121.58737 37080 ft 410 kts 177°
2026-05-07 00:09 42.34451 -121.57618 37044 ft 411 kts 177°
2026-05-07 00:10 42.28702 -121.56456 37028 ft 411 kts 177°
2026-05-07 00:10 42.23048 -121.55318 37023 ft 411 kts 177°
2026-05-07 00:11 42.17384 -121.54180 37025 ft 411 kts 178°
2026-05-07 00:11 42.11728 -121.53051 37066 ft 410 kts 178°
2026-05-07 00:12 42.06088 -121.51917 37068 ft 410 kts 178°
2026-05-07 00:12 42.00432 -121.50785 37045 ft 411 kts 178°
2026-05-07 00:13 41.94775 -121.49649 37021 ft 411 kts 178°
2026-05-07 00:13 41.89146 -121.48535 37017 ft 412 kts 178°
2026-05-07 00:14 41.83468 -121.47403 37040 ft 412 kts 178°
2026-05-07 00:14 41.77789 -121.46276 37092 ft 412 kts 178°
2026-05-07 00:15 41.72119 -121.45152 37108 ft 412 kts 178°
2026-05-07 00:15 41.66441 -121.44033 37090 ft 412 kts 178°
2026-05-07 00:16 41.60754 -121.42908 37082 ft 412 kts 178°
2026-05-07 00:16 41.55106 -121.41792 37043 ft 413 kts 178°
2026-05-07 00:17 41.49413 -121.40680 37042 ft 414 kts 178°
2026-05-07 00:17 41.43714 -121.39551 37029 ft 414 kts 178°
2026-05-07 00:18 41.38008 -121.38435 37038 ft 414 kts 178°
2026-05-07 00:18 41.32299 -121.37330 37040 ft 415 kts 178°
2026-05-07 00:19 41.26572 -121.36206 37030 ft 416 kts 177°
2026-05-07 00:19 41.20849 -121.35084 37066 ft 415 kts 178°
2026-05-07 00:20 41.15123 -121.33976 37045 ft 416 kts 178°
2026-05-07 00:20 41.09395 -121.32869 37058 ft 416 kts 178°
2026-05-07 00:21 41.03663 -121.31761 37047 ft 417 kts 178°
2026-05-07 00:21 40.97912 -121.30644 37032 ft 417 kts 178°
2026-05-07 00:22 40.92207 -121.29538 37044 ft 417 kts 178°
2026-05-07 00:22 40.86466 -121.28450 37051 ft 417 kts 178°
2026-05-07 00:23 40.80722 -121.27344 37034 ft 418 kts 178°
2026-05-07 00:23 40.74966 -121.26224 37023 ft 418 kts 178°
2026-05-07 00:24 40.69213 -121.25138 37025 ft 418 kts 178°
2026-05-07 00:24 40.63464 -121.24042 37039 ft 417 kts 178°
2026-05-07 00:25 40.57719 -121.22935 37069 ft 417 kts 178°
2026-05-07 00:25 40.51974 -121.21845 37036 ft 417 kts 178°
2026-05-07 00:26 40.46228 -121.20755 37023 ft 417 kts 178°
2026-05-07 00:26 40.40472 -121.19649 37002 ft 418 kts 178°
2026-05-07 00:27 40.34715 -121.18563 37001 ft 418 kts 178°
2026-05-07 00:27 40.28959 -121.17476 37035 ft 418 kts 178°
2026-05-07 00:28 40.23207 -121.16375 37042 ft 418 kts 178°
2026-05-07 00:28 40.17456 -121.15302 37053 ft 417 kts 178°
2026-05-07 00:29 40.11702 -121.14224 37057 ft 418 kts 178°
2026-05-07 00:30 40.00222 -121.12068 37074 ft 418 kts 178°
2026-05-07 00:30 39.94459 -121.10994 37033 ft 419 kts 178°
2026-05-07 00:31 39.88679 -121.09904 36994 ft 420 kts 178°
2026-05-07 00:31 39.82893 -121.08825 36987 ft 420 kts 178°
2026-05-07 00:32 39.77091 -121.07739 37000 ft 421 kts 178°
2026-05-07 00:32 39.71291 -121.06661 37001 ft 422 kts 178°
2026-05-07 00:33 39.65511 -121.05587 37032 ft 421 kts 178°
2026-05-07 00:33 39.59713 -121.04508 37059 ft 421 kts 178°
2026-05-07 00:34 39.53902 -121.03430 37082 ft 421 kts 178°
2026-05-07 00:34 39.48099 -121.02361 37097 ft 421 kts 178°
2026-05-07 00:35 39.42280 -121.01287 37073 ft 422 kts 178°
2026-05-07 00:35 39.36464 -121.00202 37080 ft 422 kts 178°
2026-05-07 00:36 39.30635 -120.99144 37087 ft 422 kts 178°
2026-05-07 00:36 39.24819 -120.98076 37094 ft 422 kts 178°
2026-05-07 00:37 39.19001 -120.97008 37086 ft 423 kts 178°
2026-05-07 00:37 39.13175 -120.95932 37061 ft 423 kts 178°
2026-05-07 00:38 39.07341 -120.94867 37060 ft 423 kts 178°
2026-05-07 00:38 39.01541 -120.93825 37025 ft 424 kts 178°
2026-05-07 00:39 38.95704 -120.92756 36990 ft 424 kts 178°
2026-05-07 00:39 38.89857 -120.91691 36976 ft 424 kts 177°
2026-05-07 00:40 38.84012 -120.90627 36998 ft 423 kts 178°
2026-05-07 00:40 38.78171 -120.89584 36989 ft 424 kts 178°
2026-05-07 00:41 38.72331 -120.88520 36998 ft 424 kts 178°
2026-05-07 00:41 38.66488 -120.87458 36997 ft 424 kts 178°
2026-05-07 00:42 38.60635 -120.86414 37011 ft 425 kts 178°
2026-05-07 00:42 38.54778 -120.85358 37014 ft 426 kts 177°
2026-05-07 00:43 38.48919 -120.84293 37049 ft 425 kts 178°
2026-05-07 00:43 38.43050 -120.83258 37050 ft 426 kts 178°
2026-05-07 00:44 38.37185 -120.82198 37043 ft 426 kts 177°
2026-05-07 00:44 38.31319 -120.81147 37034 ft 425 kts 178°
2026-05-07 00:45 38.25491 -120.80107 36993 ft 425 kts 178°
2026-05-07 00:45 38.19630 -120.79062 36953 ft 426 kts 177°
2026-05-07 00:46 38.13716 -120.78004 36944 ft 426 kts 178°
2026-05-07 00:46 38.07877 -120.76973 36949 ft 427 kts 178°
2026-05-07 00:47 38.01993 -120.75932 36967 ft 427 kts 177°
2026-05-07 00:47 37.96098 -120.74873 37001 ft 427 kts 178°
2026-05-07 00:48 37.90192 -120.73838 36966 ft 428 kts 178°
2026-05-07 00:48 37.84280 -120.72796 36973 ft 429 kts 177°
2026-05-07 00:49 37.78370 -120.71754 36994 ft 429 kts 178°
2026-05-07 00:49 37.73460 -120.70890 36999 ft 429 kts 178°
2026-05-07 00:50 37.67545 -120.69847 36996 ft 429 kts 178°
2026-05-07 00:50 37.61637 -120.68814 36993 ft 429 kts 178°
2026-05-07 00:51 37.55722 -120.67780 36993 ft 429 kts 178°
2026-05-07 00:51 37.49818 -120.66753 36988 ft 429 kts 178°
2026-05-07 00:52 37.43901 -120.65720 36973 ft 429 kts 177°
2026-05-07 00:52 37.37984 -120.64677 36960 ft 429 kts 178°
2026-05-07 00:53 37.32121 -120.63531 36945 ft 432 kts 172°
2026-05-07 00:53 37.26242 -120.61664 36951 ft 434 kts 171°
2026-05-07 00:54 37.20443 -120.59734 36963 ft 433 kts 171°
2026-05-07 00:54 37.14598 -120.57843 36962 ft 433 kts 171°
2026-05-07 00:55 37.08763 -120.55956 36960 ft 433 kts 171°
2026-05-07 00:55 37.02926 -120.54066 36959 ft 433 kts 171°
2026-05-07 00:56 36.97086 -120.52188 36958 ft 433 kts 171°
2026-05-07 00:56 36.91251 -120.50302 36962 ft 433 kts 171°
2026-05-07 00:57 36.85418 -120.48416 36963 ft 433 kts 171°
2026-05-07 00:57 36.79742 -120.46589 36967 ft 433 kts 171°
2026-05-07 00:58 36.73895 -120.44727 36955 ft 434 kts 171°
2026-05-07 00:58 36.68076 -120.42860 36915 ft 435 kts 171°
2026-05-07 00:59 36.59273 -120.40034 36910 ft 436 kts 171°
2026-05-07 01:00 36.53390 -120.38163 36931 ft 437 kts 171°
2026-05-07 01:00 36.47498 -120.36275 36932 ft 437 kts 171°
2026-05-07 01:01 36.41601 -120.34400 36954 ft 437 kts 171°
2026-05-07 01:01 36.35710 -120.32536 36985 ft 437 kts 171°
2026-05-07 01:02 36.29814 -120.30653 37002 ft 437 kts 171°
2026-05-07 01:02 36.23950 -120.28792 37003 ft 438 kts 171°
2026-05-07 01:03 36.18058 -120.26939 37005 ft 437 kts 171°
2026-05-07 01:03 36.12147 -120.25066 36968 ft 438 kts 171°
2026-05-07 01:04 36.06246 -120.23201 36929 ft 438 kts 171°
2026-05-07 01:04 36.00338 -120.21332 36940 ft 438 kts 171°
2026-05-07 01:05 35.94422 -120.19488 36949 ft 438 kts 171°
2026-05-07 01:05 35.88549 -120.17636 36964 ft 438 kts 171°
2026-05-07 01:06 35.82642 -120.15795 37005 ft 437 kts 172°
2026-05-07 01:06 35.76705 -120.13945 37024 ft 438 kts 171°
2026-05-07 01:07 35.70807 -120.12092 37058 ft 437 kts 171°
2026-05-07 01:07 35.65060 -120.09717 37047 ft 446 kts 158°
2026-05-07 01:08 35.59692 -120.05784 37035 ft 450 kts 152°
2026-05-07 01:08 35.54409 -120.01631 37033 ft 450 kts 153°
2026-05-07 01:09 35.49072 -119.97619 37024 ft 449 kts 154°
2026-05-07 01:09 35.43728 -119.93645 36982 ft 450 kts 154°
2026-05-07 01:09 35.41050 -119.91640 36861 ft 448 kts 154°
2026-05-07 01:10 35.38395 -119.89643 36546 ft 448 kts 153°
2026-05-07 01:10 35.35737 -119.87635 36279 ft 448 kts 153°
2026-05-07 01:10 35.33082 -119.85641 35818 ft 448 kts 154°
2026-05-07 01:10 35.30453 -119.83674 35292 ft 447 kts 154°
2026-05-07 01:11 35.27862 -119.81576 34772 ft 448 kts 149°
2026-05-07 01:11 35.25359 -119.79293 34230 ft 448 kts 147°
2026-05-07 01:11 35.22884 -119.76958 33694 ft 448 kts 147°
2026-05-07 01:11 35.20430 -119.74618 33177 ft 446 kts 146°
2026-05-07 01:12 35.17980 -119.72295 32652 ft 445 kts 147°
2026-05-07 01:12 35.15527 -119.69993 32119 ft 444 kts 147°
2026-05-07 01:12 35.13072 -119.67716 31585 ft 442 kts 147°
2026-05-07 01:12 35.10619 -119.65453 31054 ft 441 kts 147°
2026-05-07 01:13 35.08179 -119.63193 30550 ft 439 kts 147°
2026-05-07 01:13 35.05758 -119.60935 30045 ft 437 kts 147°
2026-05-07 01:13 35.03345 -119.58676 29499 ft 436 kts 146°
2026-05-07 01:13 35.00945 -119.56435 28985 ft 434 kts 146°
2026-05-07 01:14 34.98543 -119.54202 28471 ft 432 kts 146°
2026-05-07 01:14 34.96164 -119.51994 27951 ft 428 kts 146°
2026-05-07 01:14 34.93806 -119.49806 27450 ft 424 kts 146°
2026-05-07 01:14 34.91471 -119.47646 26933 ft 420 kts 146°
2026-05-07 01:15 34.89146 -119.45513 26423 ft 416 kts 146°
2026-05-07 01:15 34.86826 -119.43431 25937 ft 411 kts 147°
2026-05-07 01:15 34.84524 -119.41398 25472 ft 407 kts 147°
2026-05-07 01:15 34.82249 -119.39385 25005 ft 402 kts 146°
2026-05-07 01:16 34.79998 -119.37383 24519 ft 399 kts 146°
2026-05-07 01:16 34.77774 -119.35395 24063 ft 395 kts 146°
2026-05-07 01:16 34.75571 -119.33421 23622 ft 391 kts 146°
2026-05-07 01:16 34.73388 -119.31472 23184 ft 388 kts 146°
2026-05-07 01:17 34.71212 -119.29561 22772 ft 383 kts 146°
2026-05-07 01:17 34.69057 -119.27692 22377 ft 379 kts 146°
2026-05-07 01:17 34.66947 -119.25863 21986 ft 375 kts 146°
2026-05-07 01:17 34.64837 -119.24031 21591 ft 371 kts 146°
2026-05-07 01:18 34.62748 -119.22219 21197 ft 367 kts 146°
2026-05-07 01:18 34.60679 -119.20429 20812 ft 363 kts 146°
2026-05-07 01:18 34.58628 -119.18660 20449 ft 359 kts 146°
2026-05-07 01:18 34.56598 -119.16912 20088 ft 357 kts 146°
2026-05-07 01:19 34.54580 -119.15166 19720 ft 356 kts 146°
2026-05-07 01:19 34.52580 -119.13394 19351 ft 356 kts 144°
2026-05-07 01:19 34.50592 -119.11610 18981 ft 356 kts 144°
2026-05-07 01:19 34.48600 -119.09831 18630 ft 355 kts 144°
2026-05-07 01:20 34.46609 -119.08066 18284 ft 354 kts 145°
2026-05-07 01:20 34.44625 -119.06315 17939 ft 353 kts 144°
2026-05-07 01:20 34.42636 -119.04568 17593 ft 352 kts 145°
2026-05-07 01:20 34.40653 -119.02849 17219 ft 349 kts 145°
2026-05-07 01:21 34.38681 -119.01149 16854 ft 346 kts 145°
2026-05-07 01:21 34.36727 -118.99462 16503 ft 343 kts 145°
2026-05-07 01:21 34.34795 -118.97791 16161 ft 340 kts 144°
2026-05-07 01:21 34.32925 -118.96126 15830 ft 337 kts 143°
2026-05-07 01:22 34.31061 -118.94434 15500 ft 333 kts 143°
2026-05-07 01:22 34.29219 -118.92754 15175 ft 330 kts 143°
2026-05-07 01:22 34.27367 -118.91067 14816 ft 328 kts 143°
2026-05-07 01:22 34.25566 -118.89435 14470 ft 326 kts 143°
2026-05-07 01:23 34.23760 -118.87792 14139 ft 323 kts 142°
2026-05-07 01:23 34.21978 -118.86154 13810 ft 320 kts 142°
2026-05-07 01:23 34.20215 -118.84523 13484 ft 318 kts 142°
2026-05-07 01:23 34.18468 -118.82910 13159 ft 315 kts 142°
2026-05-07 01:24 34.16733 -118.81310 12838 ft 311 kts 141°
2026-05-07 01:24 34.15093 -118.79626 12522 ft 308 kts 137°
2026-05-07 01:24 34.13507 -118.77902 12172 ft 305 kts 136°
2026-05-07 01:24 34.11948 -118.76181 11821 ft 303 kts 136°
2026-05-07 01:25 34.10396 -118.74471 11474 ft 302 kts 137°
2026-05-07 01:25 34.08835 -118.72768 11131 ft 302 kts 137°
2026-05-07 01:25 34.07272 -118.71073 10784 ft 302 kts 137°
2026-05-07 01:25 34.05707 -118.69378 10452 ft 302 kts 137°
2026-05-07 01:26 34.04174 -118.67707 10294 ft 291 kts 136°
2026-05-07 01:26 34.02960 -118.65809 9995 ft 286 kts 115°
2026-05-07 01:26 34.02516 -118.63713 9658 ft 283 kts 97°
2026-05-07 01:26 34.02369 -118.61384 9310 ft 280 kts 93°
2026-05-07 01:27 34.02259 -118.59051 8963 ft 279 kts 94°
2026-05-07 01:27 34.02092 -118.56733 8661 ft 276 kts 97°
2026-05-07 01:27 34.01864 -118.54488 8530 ft 264 kts 98°
2026-05-07 01:27 34.01631 -118.52351 8424 ft 251 kts 98°
2026-05-07 01:28 34.01432 -118.50284 8137 ft 247 kts 97°
2026-05-07 01:28 34.01253 -118.48213 7759 ft 248 kts 97°
2026-05-07 01:28 34.01078 -118.46163 7435 ft 246 kts 94°
2026-05-07 01:28 34.01203 -118.44117 7124 ft 244 kts 80°
2026-05-07 01:29 34.01582 -118.42136 6837 ft 241 kts 76°
2026-05-07 01:29 34.01990 -118.40179 6557 ft 242 kts 76°
2026-05-07 01:29 34.02399 -118.38081 6295 ft 266 kts 78°
2026-05-07 01:29 34.02736 -118.35899 6016 ft 261 kts 80°
2026-05-07 01:30 34.02981 -118.33768 5852 ft 249 kts 84°
2026-05-07 01:30 34.03139 -118.31739 5634 ft 238 kts 85°
2026-05-07 01:30 34.03310 -118.29774 5274 ft 235 kts 83°
2026-05-07 01:30 34.03522 -118.27824 4870 ft 234 kts 82°
2026-05-07 01:31 34.03739 -118.25867 4356 ft 237 kts 83°
2026-05-07 01:31 34.03686 -118.23906 4010 ft 233 kts 109°
2026-05-07 01:31 34.02818 -118.22320 3718 ft 225 kts 144°
2026-05-07 01:31 34.01463 -118.21562 3481 ft 207 kts 170°
2026-05-07 01:32 34.00083 -118.21396 3400 ft 194 kts 185°
2026-05-07 01:32 33.98825 -118.21733 3122 ft 179 kts 206°
2026-05-07 01:32 33.97837 -118.22534 2848 ft 165 kts 224°
2026-05-07 01:32 33.97147 -118.23567 2619 ft 152 kts 240°
2026-05-07 01:33 33.96771 -118.24702 2472 ft 142 kts 256°
2026-05-07 01:33 33.96637 -118.25863 2352 ft 141 kts 264°
2026-05-07 01:33 33.96541 -118.27025 2134 ft 139 kts 263°
2026-05-07 01:33 33.96429 -118.28189 2061 ft 140 kts 263°
2026-05-07 01:34 33.96309 -118.29362 1883 ft 139 kts 263°
2026-05-07 01:34 33.96193 -118.30502 1710 ft 139 kts 263°
2026-05-07 01:34 33.96076 -118.31649 1532 ft 138 kts 264°
2026-05-07 01:34 33.95959 -118.32800 1352 ft 138 kts 265°
2026-05-07 01:35 33.95844 -118.33940 1172 ft 137 kts 265°
2026-05-07 01:35 33.95766 -118.34696 1057 ft 136 kts 265°
2026-05-07 01:35 33.95611 -118.36205 871 ft 137 kts 264°
2026-05-07 01:35 33.95553 -118.36958 746 ft 136 kts 264°
2026-05-07 01:36 33.95443 -118.38089 528 ft 136 kts 262°
2026-05-07 01:36 33.95322 -118.39209 333 ft 135 kts 262°
2026-05-07 01:36 33.95197 -118.40330 164 ft 134 kts 262°
2026-05-07 01:36 33.95090 -118.41344 141 ft 93 kts 263°
2026-05-07 01:37 33.95042 -118.41802 141 ft 39 kts 262°
2026-05-07 01:37 33.95008 -118.42104 141 ft 33 kts 264°
2026-05-07 01:37 33.94979 -118.42371 141 ft 31 kts 258°
2026-05-07 01:37 33.94922 -118.42578 141 ft 19 kts 239°
2026-05-07 01:38 33.94862 -118.42673 141 ft 10 kts 227°
2026-05-07 01:38 33.94855 -118.42682 141 ft 0 kts 221°
2026-05-07 01:38 33.94851 -118.42686 141 ft 3 kts 221°
2026-05-07 01:38 33.94820 -118.42719 141 ft 10 kts 221°
2026-05-07 01:39 33.94740 -118.42781 140 ft 14 kts 191°
2026-05-07 01:39 33.94648 -118.42776 141 ft 9 kts 154°
2026-05-07 01:39 33.94635 -118.42738 141 ft 8 kts 84°
2026-05-07 01:39 33.94645 -118.42630 141 ft 16 kts 83°
2026-05-07 01:40 33.94658 -118.42486 140 ft 18 kts 83°
2026-05-07 01:40 33.94672 -118.42341 141 ft 15 kts 84°
2026-05-07 01:40 33.94684 -118.42208 140 ft 17 kts 83°